Regional Weather Roundup
Issued by NWS Kansas City/Pleasant Hill, MO

Home | Current Version | Previous Version | Graphics & Text | Print | Product List | Glossary Off
Versions: 1 2 3 4 5 6 7 8 9 10 11 12 13 14 15 16 17 18 19 20 21 22 23 24 25 26 27

000
ASUS43 KEAX 210910
RWREAX

WEATHER ROUNDUP FOR EASTERN KANSAS AND NORTHWEST MISSOURI
NATIONAL WEATHER SERVICE KANSAS CITY/PLEASANT HILL MO
300 AM CST SAT JAN 21 2017

KSZ040-057-103>105-MOZ028-029-037-043-211000-
...KANSAS CITY METROPOLITAN AREA...

CITY           SKY/WX    TMP DP  RH WIND       PRES   REMARKS
K.C. INTL      CLEAR     40  38  93 W8        29.43R WCI  34
K.C. DOWNTOWN  CLEAR     41  40  96 SW6       29.43R
LEES SUMMIT    CLEAR     44  39  82 SW17      29.43R
OLATHE - IXD   CLEAR     38  38 100 S9        29.44R WCI  31
OLATHE - OJC   CLEAR     38  38 100 SW5       29.43S WCI  34
LAWRENCE       CLEAR     37  37 100 SW7       29.45S FOG     WCI  32

$$

MOZ001>008-011>017-020>025-030>033-038>040-044>046-053-054-211000-
...NORTHERN AND CENTRAL MISSOURI...

CITY           SKY/WX    TMP DP  RH WIND       PRES   REMARKS
ST. JOSEPH     FOG       36  36 100 CALM      29.43R VSB 3/4
MOSBY          FOG       39  39 100 CALM      29.42S VSB 1/4
WARRENSBURG    CLEAR     43  36  75 S10G16    29.44S
WHITEMAN AFB   CLEAR     43  43 100 SW13      29.44R
CLINTON        CLEAR     52  39  62 SW10      29.47S
SEDALIA        CLEAR     52  40  63 S15       29.47S
WARSAW         NOT AVBL
CHILLICOTHE      N/A     40  40 100 CALM      29.43F
KIRKSVILLE     CLEAR     40  40 100 S6        29.44F FOG

$$

MOZ041-047>049-056>058-063>065-088>090-097-211000-
...EASTERN AND SOUTHERN MISSOURI...

CITY           SKY/WX    TMP DP  RH WIND       PRES   REMARKS
ST. LOUIS INTL PTCLDY    53  48  83 S8        29.57S
SPIRIT OF STL  CLEAR     54  47  77 S8        29.55S
COLUMBIA       CLEAR     50  43  77 S14       29.48F
JEFFERSON CITY CLEAR     54  42  64 S9        29.50F
ROLLA          CLEAR     52  43  71 S14       29.53F
OSAGE BEACH    CLEAR     52  41  66 S9        29.51F
SPRINGFIELD    CLEAR     49  38  65 S7        29.53S
BRANSON        CLEAR     57  39  51 S8        29.57F
JOPLIN         CLEAR     54  37  52 SW14      29.53R
WEST PLAINS    CLOUDY    51  45  79 S7        29.61S

$$

IAZ060-094-KSZ022-034>040-054-083-096-NEZ052-066-093-211000-
...KANSAS...SOUTHEAST NEBRASKA AND IOWA...

CITY           SKY/WX    TMP DP  RH WIND       PRES   REMARKS
TOPEKA         PTCLDY    38  34  85 CALM      29.45R FOG
MANHATTAN      PTCLDY    41  40  96 SW7       29.44S FOG
EMPORIA        MOCLDY    40  40 100 W10       29.46S FOG     WCI  33
CHANUTE        CLEAR     41  36  82 S9        29.51R
WICHITA        CLEAR     32  31  96 W9        29.51R WCI  24
OMAHA          FOG       41  38  89 S6        29.39S VSB 1/2
LINCOLN        CLOUDY    40  39  97 SW6       29.41S
FALLS CITY     MOCLDY    43  42  97 SW8       29.41S
LAMONI         FOG       44  44 100 SW7       29.40S VSB 1/4
DES MOINES     FOG       41  40  96 S7        29.40F VSB 1/4

$$





USA.gov is the U.S. government's official web portal to all federal, state and local government web resources and services.